Booneville, Arkansas, United States (72927)
Lat: 35.14N, Lon: 93.92W
Wx Zone: ARZ030
Local Info
Past Weather Observations for Tuesday, April 26, 2016

NOTE: This archive is for the closest National Weather Service station to Booneville. Information may differ from the station used for current weather conditions.

Click here for Long-term Archive

Time Weather Temperature Dewpoint Humidity Pressure Winds Precip Visibility
23:53
Overcast
Thunder Storms
63°F / 17°C 57°F / 14°C 83% 29.71 in
(1006 mb)
W 29.9 mph
(W 48 kph)
0.04 in
(1.02 mm)
2 1/2SM
23:39
Overcast
Thunder Storms
73°F / 23°C 64°F / 18°C 74% 29.65 in
(1004 mb)
SSE 5.8 mph
(SSE 9 kph)
0.00 in
(0.00 mm)
10SM
22:53
Mostly Cloudy
75°F / 24°C 63°F / 17°C 65% 29.65 in
(1004 mb)
SE 6.9 mph
(SE 11 kph)
- 10SM
21:53
Clear
75°F / 24°C 63°F / 17°C 65% 29.65 in
(1004 mb)
E 8.1 mph
(E 13 kph)
- 10SM
20:53
Mostly Cloudy
77°F / 25°C 63°F / 17°C 61% 29.65 in
(1004 mb)
E 6.9 mph
(E 11 kph)
- 10SM
19:53
Clear
77°F / 25°C 63°F / 17°C 61% 29.62 in
(1003 mb)
SE 10.4 mph
(SE 17 kph)
- 10SM
18:53
Clear
79°F / 26°C 61°F / 16°C 54% 29.59 in
(1002 mb)
SE 6.9 mph
(SE 11 kph)
- 10SM
17:53
Clear
82°F / 28°C 61°F / 16°C 48% 29.59 in
(1002 mb)
SSE 10.4 mph
(SSE 17 kph)
- 10SM
16:53
Partly Cloudy
84°F / 29°C 63°F / 17°C 48% 29.62 in
(1003 mb)
SSE 13.8 mph
(SSE 22 kph)
- 10SM
15:53
Mostly Cloudy
86°F / 30°C 63°F / 17°C 46% 29.65 in
(1004 mb)
SE 11.5 mph
(SE 19 kph)
- 10SM
14:53
Partly Cloudy
84°F / 29°C 63°F / 17°C 48% 29.68 in
(1005 mb)
SSE 5.8 mph
(SSE 9 kph)
- 10SM
13:53
Mostly Cloudy
82°F / 28°C 63°F / 17°C 51% 29.68 in
(1005 mb)
SE 6.9 mph
(SE 11 kph)
- 10SM
12:53
Mostly Cloudy
82°F / 28°C 63°F / 17°C 51% 29.71 in
(1006 mb)
S 10.4 mph
(S 17 kph)
- 10SM
11:53
Overcast
81°F / 27°C 63°F / 17°C 54% 29.71 in
(1006 mb)
S 12.7 mph
(S 20 kph)
- 10SM
10:53
Overcast
79°F / 26°C 63°F / 17°C 58% 29.74 in
(1007 mb)
S 8.1 mph
(S 13 kph)
- 10SM
09:53
Overcast
79°F / 26°C 64°F / 18°C 61% 29.74 in
(1007 mb)
S 6.9 mph
(S 11 kph)
- 10SM
09:10
Overcast
75°F / 24°C 64°F / 18°C 69% 29.77 in
(1008 mb)
S 10.4 mph
(S 17 kph)
- 10SM
08:53
Overcast
75°F / 24°C 64°F / 18°C 69% 29.77 in
(1008 mb)
S 9.2 mph
(S 15 kph)
- 10SM
08:34
Overcast
73°F / 23°C 66°F / 19°C 78% 29.77 in
(1008 mb)
Calm - 10SM
07:53
Overcast
72°F / 22°C 66°F / 19°C 83% 29.77 in
(1008 mb)
Calm 0.00 in
(0.00 mm)
7SM
06:53
Overcast
72°F / 22°C 64°F / 18°C 78% 29.77 in
(1008 mb)
Calm - 10SM
05:53
Overcast
70°F / 21°C 64°F / 18°C 83% 29.74 in
(1007 mb)
ESE 3.5 mph
(ESE 6 kph)
- 10SM
05:09
Overcast
70°F / 21°C 64°F / 18°C 83% 29.74 in
(1007 mb)
Calm - 10SM
04:53
Overcast
70°F / 21°C 64°F / 18°C 83% 29.74 in
(1007 mb)
ENE 3.5 mph
(ENE 6 kph)
- 10SM
03:53
Overcast
68°F / 20°C 63°F / 17°C 83% 29.74 in
(1007 mb)
ENE 4.6 mph
(ENE 7 kph)
- 10SM
02:53
Partly Cloudy
68°F / 20°C 63°F / 17°C 83% 29.74 in
(1007 mb)
NE 4.6 mph
(NE 7 kph)
- 10SM
01:53
Clear
68°F / 20°C 63°F / 17°C 83% 29.71 in
(1006 mb)
E 5.8 mph
(E 9 kph)
- 10SM
00:53
Clear
70°F / 21°C 63°F / 17°C 78% 29.74 in
(1007 mb)
Calm - 10SM
Time Weather Temperature Dewpoint Humidity Pressure Winds Precip Visibility


Weather for websites

WeatherForYou.com, LLC is not responsible for any damages or problems caused by this service. Current weather conditions are obtained from the closest station including government and personal stations which may have varying degrees of accuracy. Weather forecasts are derived from the NOAA NDFD. Like all things, this site belongs to Jesus Christ... He just trusts us to maintain it. If you have any questions or comments email webmaster@weatherforyou.com

Copyright © 2016, WeatherForYou.com LLC. All rights reserved.